TimeCDT,TemperatureF,Dew PointF,Humidity,Sea Level PressureIn,VisibilityMPH,Wind Direction,Wind SpeedMPH,Gust SpeedMPH,PrecipitationIn,Events,Conditions,WindDirDegrees,DateUTC
12:15 AM,82.9,73.4,73,29.89,10.0,SE,8.1,-,N/A,,Scattered Clouds,140,2013-07-15 05:15:00
12:35 AM,82.8,73.4,73,29.88,7.0,SE,10.4,-,N/A,,Scattered Clouds,140,2013-07-15 05:35:00
12:55 AM,82.4,73.6,75,29.88,10.0,SSE,10.4,-,N/A,,Clear,150,2013-07-15 05:55:00
1:15 AM,82.4,73.4,74,29.88,10.0,SSE,11.5,-,N/A,,Clear,150,2013-07-15 06:15:00
1:35 AM,82.0,73.4,75,29.87,5.0,SSE,10.4,-,N/A,,Haze,150,2013-07-15 06:35:00
1:55 AM,81.9,73.4,75,29.87,10.0,SSE,10.4,-,N/A,,Clear,150,2013-07-15 06:55:00
2:15 AM,81.7,73.4,76,29.87,10.0,SSE,9.2,-,N/A,,Clear,150,2013-07-15 07:15:00
2:35 AM,81.5,73.4,76,29.86,10.0,SSE,10.4,-,N/A,,Clear,150,2013-07-15 07:35:00
2:55 AM,81.5,73.4,76,29.86,10.0,SSE,8.1,-,N/A,,Clear,150,2013-07-15 07:55:00
3:15 AM,80.8,73.4,78,29.85,7.0,SSE,9.2,-,N/A,,Clear,150,2013-07-15 08:15:00
3:35 AM,80.8,73.4,78,29.85,10.0,SSE,8.1,-,N/A,,Clear,150,2013-07-15 08:35:00
3:55 AM,80.4,73.4,79,29.84,7.0,SSE,8.1,-,N/A,,Clear,150,2013-07-15 08:55:00
4:15 AM,80.1,73.4,80,29.84,10.0,SSE,8.1,-,N/A,,Clear,150,2013-07-15 09:15:00
4:35 AM,79.9,73.6,81,29.84,7.0,SSE,5.8,-,N/A,,Clear,150,2013-07-15 09:35:00
4:55 AM,79.7,73.6,81,29.85,7.0,SSE,5.8,-,N/A,,Scattered Clouds,150,2013-07-15 09:55:00
5:15 AM,79.7,73.8,82,29.85,7.0,SE,5.8,-,N/A,,Scattered Clouds,140,2013-07-15 10:15:00
5:35 AM,78.8,73.4,83,29.85,10.0,SE,4.6,-,N/A,,Clear,130,2013-07-15 10:35:00
5:55 AM,78.3,73.4,85,29.85,7.0,SE,4.6,-,N/A,,Clear,130,2013-07-15 10:55:00
6:15 AM,77.9,73.4,86,29.85,7.0,ESE,5.8,-,N/A,,Clear,120,2013-07-15 11:15:00
6:35 AM,78.1,73.4,85,29.85,7.0,ESE,5.8,-,N/A,,Clear,120,2013-07-15 11:35:00
6:55 AM,77.9,73.4,86,29.85,7.0,ESE,4.6,-,N/A,,Clear,110,2013-07-15 11:55:00
7:35 AM,78.8,73.8,84,29.87,0.8,ESE,3.5,-,N/A,,Haze,120,2013-07-15 12:35:00
7:55 AM,79.2,73.9,84,29.87,7.0,ESE,6.9,-,0.13,,Clear,120,2013-07-15 12:55:00
8:15 AM,80.1,74.3,82,29.87,7.0,SE,9.2,-,N/A,,Clear,130,2013-07-15 13:15:00
8:35 AM,81.1,74.3,80,29.87,7.0,SE,9.2,-,N/A,,Clear,130,2013-07-15 13:35:00
8:55 AM,82.4,74.5,77,29.87,7.0,SE,9.2,-,N/A,,Clear,140,2013-07-15 13:55:00
9:15 AM,83.7,74.5,74,29.88,7.0,SSE,11.5,-,N/A,,Clear,150,2013-07-15 14:15:00
9:35 AM,84.2,74.3,72,29.88,7.0,SSE,9.2,17.3,N/A,,Clear,150,2013-07-15 14:35:00
9:55 AM,85.1,74.1,70,29.89,7.0,SE,12.7,-,N/A,,Clear,140,2013-07-15 14:55:00
10:15 AM,85.5,73.2,67,29.89,7.0,SSE,13.8,-,N/A,,Clear,150,2013-07-15 15:15:00
10:35 AM,86.5,72.9,64,29.89,7.0,SSE,15.0,19.6,N/A,,Scattered Clouds,160,2013-07-15 15:35:00
10:55 AM,87.8,72.0,59,29.89,7.0,SE,12.7,23.0,N/A,,Mostly Cloudy,130,2013-07-15 15:55:00
11:15 AM,90.0,72.1,56,29.90,7.0,SSE,11.5,-,N/A,,Scattered Clouds,160,2013-07-15 16:15:00
11:35 AM,90.9,71.1,52,29.89,5.0,SSE,16.1,20.7,N/A,,Haze,150,2013-07-15 16:35:00
11:55 AM,92.1,69.4,47,29.89,7.0,SE,16.1,21.9,N/A,,Scattered Clouds,140,2013-07-15 16:55:00
12:15 PM,93.2,67.1,42,29.88,7.0,SE,15.0,20.7,N/A,,Scattered Clouds,140,2013-07-15 17:15:00
12:35 PM,94.3,68.7,43,29.88,7.0,SSE,15.0,21.9,N/A,,Scattered Clouds,150,2013-07-15 17:35:00
12:55 PM,93.7,68.4,43,29.88,10.0,ESE,18.4,21.9,N/A,,Scattered Clouds,120,2013-07-15 17:55:00
1:15 PM,95.2,67.1,40,29.88,7.0,South,12.7,21.9,N/A,,Scattered Clouds,170,2013-07-15 18:15:00
1:35 PM,95.2,66.0,38,29.87,7.0,SSE,12.7,23.0,N/A,,Clear,160,2013-07-15 18:35:00
1:55 PM,95.4,64.9,37,29.87,5.0,SSE,16.1,23.0,N/A,,Haze,160,2013-07-15 18:55:00
2:35 PM,96.6,63.0,33,29.85,7.0,SSE,11.5,19.6,N/A,,Scattered Clouds,150,2013-07-15 19:35:00
2:55 PM,97.5,62.8,32,29.84,7.0,SSE,12.7,19.6,N/A,,Clear,150,2013-07-15 19:55:00
3:15 PM,98.1,62.4,31,29.84,7.0,SE,13.8,23.0,N/A,,Scattered Clouds,130,2013-07-15 20:15:00
3:35 PM,97.9,61.3,30,29.83,7.0,SE,18.4,25.3,N/A,,Scattered Clouds,140,2013-07-15 20:35:00
3:55 PM,98.4,63.3,31,29.82,7.0,SE,20.7,25.3,N/A,,Scattered Clouds,130,2013-07-15 20:55:00
4:15 PM,98.4,63.1,31,29.82,7.0,SE,16.1,24.2,N/A,,Clear,140,2013-07-15 21:15:00
4:35 PM,98.1,63.5,32,29.82,10.0,SE,12.7,23.0,N/A,,Scattered Clouds,140,2013-07-15 21:35:00
4:55 PM,95.5,65.5,37,29.82,7.0,SE,18.4,25.3,N/A,,Scattered Clouds,130,2013-07-15 21:55:00
5:15 PM,94.5,65.3,38,29.83,7.0,ESE,17.3,-,N/A,,Scattered Clouds,120,2013-07-15 22:15:00
5:35 PM,93.9,65.5,39,29.83,7.0,ESE,19.6,-,N/A,,Scattered Clouds,120,2013-07-15 22:35:00
5:55 PM,93.6,65.3,39,29.83,7.0,ESE,18.4,-,N/A,,Clear,110,2013-07-15 22:55:00
6:15 PM,93.2,65.8,40,29.83,7.0,ESE,18.4,24.2,N/A,,Clear,120,2013-07-15 23:15:00
6:35 PM,92.3,68.4,45,29.83,10.0,ESE,20.7,25.3,N/A,,Clear,120,2013-07-15 23:35:00
6:55 PM,91.6,68.0,46,29.84,7.0,ESE,17.3,27.6,N/A,,Clear,110,2013-07-15 23:55:00
7:15 PM,91.4,67.6,45,29.85,10.0,ESE,20.7,26.5,N/A,,Clear,120,2013-07-16 00:15:00
7:35 PM,90.7,68.4,48,29.86,10.0,ESE,19.6,24.2,N/A,,Clear,110,2013-07-16 00:35:00
7:55 PM,89.1,69.4,52,29.87,10.0,ESE,18.4,-,N/A,,Clear,110,2013-07-16 00:55:00
8:15 PM,88.3,69.4,53,29.88,10.0,ESE,17.3,25.3,N/A,,Clear,110,2013-07-16 01:15:00
8:35 PM,87.4,70.7,57,29.89,10.0,ESE,15.0,-,N/A,,Clear,110,2013-07-16 01:35:00
8:55 PM,86.5,69.8,57,29.90,10.0,ESE,13.8,-,N/A,,Clear,110,2013-07-16 01:55:00
9:15 PM,86.0,69.6,58,29.90,10.0,ESE,13.8,-,N/A,,Clear,110,2013-07-16 02:15:00
9:35 PM,85.1,70.0,60,29.91,10.0,ESE,13.8,-,N/A,,Clear,110,2013-07-16 02:35:00
9:55 PM,84.6,70.9,63,29.91,10.0,ESE,16.1,-,N/A,,Clear,110,2013-07-16 02:55:00
10:15 PM,84.2,71.6,66,29.92,10.0,ESE,12.7,-,N/A,,Clear,110,2013-07-16 03:15:00
10:35 PM,83.7,72.5,69,29.93,7.0,ESE,12.7,-,N/A,,Clear,110,2013-07-16 03:35:00
10:55 PM,83.3,72.9,71,29.93,10.0,ESE,11.5,-,N/A,,Clear,110,2013-07-16 03:55:00
11:15 PM,82.9,73.4,73,29.94,7.0,ESE,8.1,-,N/A,,Clear,110,2013-07-16 04:15:00
11:35 PM,82.8,73.6,74,29.94,7.0,ESE,8.1,-,N/A,,Clear,110,2013-07-16 04:35:00
11:55 PM,82.4,73.8,75,29.95,10.0,ESE,8.1,-,N/A,,Clear,110,2013-07-16 04:55:00